Вернуться в каталог

STARLINK-5360

АктивенСвязьVLEO
NORAD 54846·PAYLOAD·🇺🇸 United States

Запущен Dec 28, 2022 с Cape Canaveral Space Force Station

Loading…

Ближайшие Пролёты (ближайшие 24 часа)

TLE

СвежийSource: CelesTrak SupGP

Эпоха: Sep 14, 2026, 21:50 UTC

1 54846C 22177AC  26257.91020833 -.00018130  00000+0 -65688-3 0  2571
2 54846  43.0000 144.0190 0000933 252.0962  60.1795 15.27578024    16

Отслеживайте STARLINK-5360 в реальном времени с AllMySat

Download on the App Store